Weather History for Burlington, VT

Change the Weather History Date:

Friday, March 22, 2013

  Actual Average Record
Temperature  
Mean Temperature 27 °F 33 °F  
Max Temperature 35 °F 42 °F 81 °F (2012)
Min Temperature 19 °F 24 °F 1 °F (1885)
Degree Days  
Heating Degree Days 38 32  
Month to date heating degree days 750 790  
Since 1 July heating degree days 5628 6200  
Cooling Degree Days 0 0  
Month to date cooling degree days 0 0  
Year to date cooling degree days 0 0  
Moisture  
Dew Point 18 °F    
Average Humidity 64    
Maximum Humidity 77    
Minimum Humidity 51    
Precipitation  
Precipitation T in 0.07 in 1.03 in (2001)
Month to date precipitation 1.93 1.53  
Year to date precipitation 4.36 5.35  
Snow  
Snow 0.20 in 0.40 in 8.50 in (1998)
Month to date snowfall 16.2 12.6  
Since 1 July snowfall 81.9 73.4  
Snow Depth 4.00 in    
Sea Level Pressure  
Sea Level Pressure 29.71 in    
Wind  
Wind Speed 6 mph (West)    
Max Wind Speed 15 mph    
Max Gust Speed 20 mph    
Visibility 8 miles    
Events Snow    
T = Trace of Precipitation, MM = Missing Value Source: NWS Daily Summary

Daily Weather History Graph

Daily Weather History Graph

Search for Another Location

Airport:

Trip Planner

Search our weather history database for the weather conditions in past years. The results will help you decide how hot, cold, wet, or windy it might be!

Date:

Astronomy

Mar. 22, 2013 Rise Set
Actual Time 6:51 AM EDT 7:07 PM EDT
Civil Twilight 6:22 AM EDT 7:36 PM EDT
Nautical Twilight 5:48 AM EDT 8:11 PM EDT
Astronomical Twilight 5:13 AM EDT 8:46 PM EDT
Moon 2:22 PM EDT (3/22) 4:00 AM EDT (3/22)
Length of Visible Light 13h 14m
Length of Day
12h 16m
Waxing Gibbous, 77% of the Moon is Illuminated
Mar 22
Waxing Gibbous
Mar 27
Full
Apr 3
Last Quarter
Apr 10
New
Apr 18
First Quarter

Hourly Weather History & Observations

Time (EDT) Temp. Windchill Dew Point Humidity Pressure Visibility Wind Dir Wind Speed Gust Speed Precip Events Conditions
12:54 AM 24.1 °F - 15.1 °F 69% 29.68 in 10.0 mi Calm Calm - N/A   Partly Cloudy
1:54 AM 23.0 °F 18.4 °F 16.0 °F 74% 29.68 in 10.0 mi SE 3.5 mph - N/A   Partly Cloudy
2:54 AM 21.0 °F 16.2 °F 15.1 °F 78% 29.67 in 10.0 mi SE 3.5 mph - N/A   Overcast
3:54 AM 21.0 °F - 15.1 °F 78% 29.67 in 10.0 mi Calm Calm - N/A   Overcast
4:54 AM 21.0 °F - 16.0 °F 81% 29.68 in 10.0 mi Calm Calm - N/A   Overcast
5:54 AM 21.0 °F 14.6 °F 15.1 °F 78% 29.68 in 10.0 mi South 4.6 mph - N/A   Overcast
6:54 AM 21.0 °F 14.6 °F 14.0 °F 74% 29.68 in 10.0 mi SSE 4.6 mph - N/A   Partly Cloudy
7:54 AM 23.0 °F 17.0 °F 14.0 °F 68% 29.69 in 10.0 mi SSE 4.6 mph - N/A   Mostly Cloudy
8:54 AM 25.0 °F 17.1 °F 14.0 °F 63% 29.69 in 10.0 mi South 6.9 mph - N/A   Scattered Clouds
9:54 AM 28.0 °F 20.0 °F 15.1 °F 58% 29.69 in 10.0 mi South 8.1 mph - N/A   Scattered Clouds
10:54 AM 30.0 °F - 18.0 °F 61% 29.69 in 9.0 mi Calm Calm - 0.00 in   Overcast
11:54 AM 32.0 °F 24.8 °F 18.0 °F 56% 29.69 in 10.0 mi West 8.1 mph - N/A   Overcast
12:54 PM 33.1 °F 27.7 °F 18.0 °F 54% 29.69 in 10.0 mi Variable 5.8 mph - N/A   Mostly Cloudy
1:54 PM 34.0 °F 28.8 °F 19.0 °F 54% 29.68 in 10.0 mi SW 5.8 mph - N/A   Scattered Clouds
2:54 PM 32.0 °F 26.4 °F 19.9 °F 61% 29.68 in 10.0 mi WSW 5.8 mph - N/A   Mostly Cloudy
3:54 PM 32.0 °F 24.8 °F 21.9 °F 66% 29.68 in 9.0 mi West 8.1 mph - 0.00 in Snow Light Snow
4:54 PM 32.0 °F 26.4 °F 23.0 °F 69% 29.69 in 10.0 mi NW 5.8 mph - 0.00 in   Overcast
5:54 PM 32.0 °F 24.8 °F 21.0 °F 64% 29.70 in 10.0 mi NNW 8.1 mph - 0.00 in Snow Light Snow
6:11 PM 30.2 °F 21.3 °F 21.2 °F 69% 29.70 in 4.0 mi NW 10.4 mph - 0.00 in Snow Light Snow
6:37 PM 30.2 °F 21.3 °F 21.2 °F 69% 29.72 in 2.5 mi NW 10.4 mph - 0.00 in Snow Light Snow
6:39 PM 30.2 °F 20.8 °F 21.2 °F 69% 29.72 in 1.5 mi NW 11.5 mph - 0.00 in Snow Light Snow
6:44 PM 28.4 °F 19.7 °F 21.2 °F 74% 29.72 in 1.0 mi WNW 9.2 mph - 0.00 in Snow Light Snow
6:54 PM 28.9 °F 19.8 °F 21.9 °F 75% 29.75 in 1.0 mi NW 10.4 mph - 0.00 in Snow Light Snow
6:56 PM 28.4 °F 20.4 °F 23.0 °F 80% 29.73 in 1.8 mi WNW 8.1 mph - 0.00 in Snow Light Snow
7:06 PM 28.4 °F 19.1 °F 21.2 °F 74% 29.73 in 3.0 mi NW 10.4 mph 19.6 mph 0.00 in Snow Light Snow
7:17 PM 30.2 °F 20.2 °F 19.4 °F 64% 29.74 in 9.0 mi NW 12.7 mph - 0.00 in   Overcast
7:54 PM 28.9 °F 20.4 °F 19.0 °F 67% 29.76 in 7.0 mi NW 9.2 mph - 0.00 in Snow Light Snow
8:54 PM 30.0 °F 20.5 °F 16.0 °F 56% 29.77 in 10.0 mi WNW 11.5 mph 17.3 mph 0.00 in   Overcast
9:54 PM 28.9 °F 20.4 °F 17.1 °F 61% 29.77 in 10.0 mi West 9.2 mph - 0.00 in Snow Light Snow
10:54 PM 28.9 °F 19.2 °F 18.0 °F 64% 29.76 in 9.0 mi West 11.5 mph - 0.00 in   Overcast
11:54 PM 28.9 °F 21.1 °F 18.0 °F 64% 29.75 in 10.0 mi WNW 8.1 mph - N/A   Overcast